Regional Weather Roundup
Issued by NWS

Home | Current Version | Previous Version | Text Only | Print | Product List | Glossary Off
Versions: 1 2 3 4 5 6 7 8 9 10 11 12 13 14 15 16 17 18 19 20 21 22 23 24 25 26 27 28 29 30 31 32 33 34 35 36 37 38 39 40 41 42 43 44 45 46 47 48 49 50

000
ASUS43 KIND 232259
RWRIN

WEATHER ROUNDUP FOR INDIANA
NATIONAL WEATHER SERVICE INDIANAPOLIS IN
700 PM EDT MON APR 23 2018

NOTE: "FAIR" INDICATES FEW OR NO CLOUDS BELOW 12,000 FEET WITH NO
SIGNIFICANT WEATHER AND/OR OBSTRUCTIONS TO VISIBILITY.

* - STATION DOES NOT REPORT WEATHER SUCH AS PRECIPITATION OR FOG.

+ - STATION NOT QUALITY CONTROLLED BY THE NATIONAL WEATHER SERVICE.
    USE DATA WITH CAUTION...ESPECIALLY DEWPOINT AND RELATIVE
    HUMIDITY OBSERVATIONS.

INZ001>003-010>013-019-020-240000-
NORTHWEST INDIANA

CITY           SKY/WX    TMP DP  RH WIND       PRES   REMARKS
GARY /AIRPORT/ CLOUDY    48  32  53 N3        30.12S
KNOX *+        CLOUDY    57  54  88 SE7       30.09F
MONTICELLO +   CLOUDY    56  55  94 E7        30.07S

$$

LMZ046-743>745-240000-
SOUTHERN LAKE MICHIGAN

STATION/POSITION TIME  TEMP    WIND        PRES    WAVE
                       AIR SEA DIR/SP/G            HT
                 (UTC) (F)     (DEG/KT/KT) (MB)    (FT)
BURNS HARBOR     2240   43     280/  2/  4 1020.0S
MICHIGAN CITY    2230   43     200/  5/  6   N/A

$$

INZ004-005-014>016-021>024-240000-
NORTH CENTRAL INDIANA

CITY           SKY/WX    TMP DP  RH WIND       PRES   REMARKS
ELKHART        LGT RAIN  61  50  67 S14G21    30.10R
GOSHEN         CLOUDY    60  51  72 S16       30.11R
ROCHESTER +    PTSUNNY   59  54  82 SE12      30.10F
SOUTH BEND     CLOUDY    60  49  66 S13       30.12R
WARSAW +       CLOUDY    57  52  82 SE9       30.11S

$$

INZ006>009-017-018-025>027-240000-
NORTHEAST INDIANA

CITY           SKY/WX    TMP DP  RH WIND       PRES   REMARKS
ANGOLA *+      PTSUNNY   59  52  77 S13G23    30.13R
FORT WAYNE     CLOUDY    58  52  80 SE16G24   30.13F
KENDALLVILLE + CLOUDY    58  47  66 S14       30.13S

$$

INZ028-029-035-036-043>045-051>053-240000-
WEST CENTRAL INDIANA

CITY           SKY/WX    TMP DP  RH WIND       PRES   REMARKS
GREENCASTLE +  CLOUDY    54  54 100 E8        30.03S FOG
LAFAYETTE      CLOUDY    56  54  93 E15       30.05F
TERRE HAUTE    CLOUDY    57  55  93 E10       30.00F FOG

$$

INZ030>032-037>040-046>048-054>057-064-065-240000-
CENTRAL INDIANA

CITY           SKY/WX    TMP DP  RH WIND       PRES   REMARKS
COLUMBUS       LGT RAIN  57 N/A N/A E16       30.02F
GREENWOOD *+   CLOUDY    55  53  93 E14G20    30.03F
INDIANAPOLIS   LGT RAIN  55  54  96 E10       30.03F FOG
-EAGLE CREEK   CLOUDY    56  53  90 E8        30.03F FOG
KOKOMO +       LGT RAIN  56  54  93 E13       30.08F FOG
MT COMFORT *+  CLOUDY    54  54 100 E13       30.05F
SHELBYVILLE    CLOUDY    58  52  80 E16       30.03S
ZIONSVILLE +   DRIZZLE   54  54  99 E9        30.06F

$$

INZ033-034-041-042-049-050-058-059-240000-
EAST CENTRAL INDIANA

CITY           SKY/WX    TMP DP  RH WIND       PRES   REMARKS
MUNCIE         LGT RAIN  56  52  86 SE18      30.08F
RICHMOND +     LGT RAIN  52  52 100 E17       30.10F

$$

INZ060-061-067>069-081>083-085>088-240000-
SOUTHWEST INDIANA

CITY           SKY/WX    TMP DP  RH WIND       PRES   REMARKS
EVANSVILLE     LGT RAIN  62  58  86 E8        29.93R
HUNTINGBURG +  CLOUDY    63  56  78 E10       29.94S

$$

INZ062-063-066-070>080-084-089>092-240000-
SOUTH CENTRAL AND SOUTHEAST INDIANA

CITY           SKY/WX    TMP DP  RH WIND       PRES   REMARKS
BLOOMINGTON    CLOUDY    57  55  93 E10       29.99F
SEYMOUR +      CLOUDY    61  52  72 E12G17    30.00F

$$





USA.gov is the U.S. government's official web portal to all federal, state and local government web resources and services.